TITAN 3C TRANSTAGE R/B, 2770

Orbit data source: Space-Track

TITAN 3C TRANSTAGE R/B, 2770 is space debris in HEO originally from a launch on Fri, 28 Apr 1967 UTC launched from the Air Force Eastern Test Range (AFETR). Debris objects in space refer to the collection of defunct objects orbiting the Earth. Examples of debris include non-operational satellites, rocket bodies, and fragments generated from explosions, collisions, or faulty payload assembly.

Loading next visibility...
Identifier
2770, 1967-040F
Orbit
HEO
Country
Flag of USUS
Related business
Manufacturer
Martin Marietta
Mission
Spacecraft
Bus & Motor
TRANSTAGE, Unknown motor
Mass
3,103 kg wet, 3,103 kg dry
Launch date (UTC)
1967-04-28 (59 years ago)
Launch vehicle
Unknown
Launch site
Air Force Eastern Test Range (AFETR)
Object type
Payload
Rocket body
Debris
Shape & HBR
Unknown
Radar Cross Section
Large (>1 m²)

Expand to show TLE details & history
Last TLE update: in 10 hours

TLE from in 10 hours
0 TITAN 3C TRANSTAGE R/B
1 02770U 67040F   25343.85044908 -.00000424  00000-0  00000-0 0  9999
2 02770  17.2067 212.8964 7850435 344.9737   0.8375  0.50944155 22338
Epoch: 2025-12-09T20:24Z
TLE epoch observation values (Epoch: 2025-12-09T20:24:38.800Z)
Latitude
-3.89951°
Longitude
175.34258°
Altitude
7,972.045 km
Speed
7.038 km/s
True Right ascension
13h 21m 20s
True Declination
-3° 53' 17"
Sunlit
Object was in daylight at epoch
Visualization orbit readout
Latitude
Unknown
Longitude
Unknown
Altitude
Unknown
Speed
Unknown
Apparent Right ascension
Unknown
Apparent Declination
Unknown
Sunlit
N/A
Visualization observer readout
Local Sidereal Time
08:24:11
Azimuth
Unknown
Elevation
Unknown
Doppler factor
Unknown
Orbital elements
Apogee altitude
111,836.325 km
Perigee altitude
7,857.352 km
Semi-major axis
66,224.976 km
Eccentricity
0.78504
Inclination
17.2067°
RAAN
212.8964°
Arg. of periapsis
344.9737°
True anomaly
11.165°
Mean anomaly
0.8375°
Eccentric anomaly
3.88527°
Mean motion
0.12735 °/min
Orbital period
2,826.78 mins
BSTAR
0
Loading maneuver chart data...
Computing Atmospheric mass density...
Loading historical data...
Loading historical data...
Loading historical data...
Loading historical data...
Loading historical data...
Loading historical data...
Loading historical data...

Documentation

Showing up to 5 results
|